Weather History for KTUS - March, 2013

Change the Weather History Date:

Tuesday, March 5, 2013

  Actual Average Record
Temperature  
Mean Temperature 63 °F 58 °F  
Max Temperature 79 °F 72 °F 96 °F (1910)
Min Temperature 47 °F 45 °F 28 °F (1948)
Degree Days  
Heating Degree Days 2 7  
Month to date heating degree days 15 38  
Since 1 July heating degree days 1290 1305  
Cooling Degree Days 0 0  
Month to date cooling degree days 0 0  
Year to date cooling degree days 0 4  
Growing Degree Days 12 (Base 50)    
Moisture  
Dew Point 27 °F    
Average Humidity 31    
Maximum Humidity 50    
Minimum Humidity 11    
Precipitation  
Precipitation 0.00 in 0.03 in 0.56 in (1923)
Month to date precipitation 0.00 0.13  
Year to date precipitation 1.60 1.93  
Snow  
Snow 0.00 in - - ()
Month to date snowfall 0.0  
Snow Depth 0.00 in    
Sea Level Pressure  
Sea Level Pressure 30.01 in    
Wind  
Wind Speed 6 mph (South)    
Max Wind Speed 17 mph    
Max Gust Speed 21 mph    
Visibility 10 miles    
Events      
T = Trace of Precipitation, MM = Missing Value Source: NWS Daily Summary

Daily Weather History Graph

Daily Weather History Graph

Search for Another Location

Airport or City:

Trip Planner

Search our weather history database for the weather conditions in past years. The results will help you decide how hot, cold, wet, or windy it might be!

Date:

Astronomy

Mar. 05, 2013 Rise Set
Actual Time 6:46 AM MST 6:24 PM MST
Civil Twilight 6:21 AM MST 6:49 PM MST
Nautical Twilight 5:53 AM MST 7:17 PM MST
Astronomical Twilight 5:24 AM MST 7:46 PM MST
Moon 1:46 AM MST (3/5) 12:22 PM MST (3/5)
Length of Visible Light 12h 27m
Length of Day
11h 38m
Last Quarter, 40% of the Moon is Illuminated
Mar 5
Last Quarter
Mar 11
New
Mar 19
First Quarter
Mar 27
Full
Apr 2
Last Quarter

Hourly Weather History & Observations

Time (MST) Temp. Dew Point Humidity Pressure Visibility Wind Dir Wind Speed Gust Speed Precip Events Conditions
12:53 AM 51.1 °F 30.9 °F 46% 30.05 in 10.0 mi SSE 5.8 mph - N/A   Clear
1:53 AM 50.0 °F 30.0 °F 46% 30.05 in 10.0 mi SE 3.5 mph - N/A   Clear
2:53 AM 48.9 °F 30.0 °F 48% 30.04 in 10.0 mi SE 6.9 mph - N/A   Clear
3:53 AM 48.0 °F 30.0 °F 50% 30.04 in 10.0 mi SE 5.8 mph - N/A   Clear
5:53 AM 48.9 °F 30.0 °F 48% 30.04 in 10.0 mi South 4.6 mph - N/A   Clear
6:53 AM 48.0 °F 30.0 °F 50% 30.05 in 10.0 mi South 5.8 mph - N/A   Clear
7:53 AM 51.1 °F 28.9 °F 43% 30.05 in 10.0 mi Calm Calm - N/A   Clear
8:53 AM 57.0 °F 28.9 °F 34% 30.07 in 10.0 mi South 8.1 mph - N/A   Clear
9:53 AM 66.9 °F 28.0 °F 23% 30.06 in 10.0 mi SSE 11.5 mph - N/A   Clear
10:53 AM 70.0 °F 27.0 °F 20% 30.05 in 10.0 mi South 5.8 mph - N/A   Clear
11:53 AM 73.0 °F 25.0 °F 17% 30.03 in 10.0 mi WSW 8.1 mph - N/A   Clear
12:53 PM 75.0 °F 23.0 °F 14% 29.99 in 10.0 mi East 5.8 mph - N/A   Clear
1:53 PM 79.0 °F 24.1 °F 13% 29.96 in 10.0 mi SSW 9.2 mph - N/A   Clear
2:53 PM 77.0 °F 19.9 °F 12% 29.95 in 10.0 mi SSE 5.8 mph - N/A   Clear
3:53 PM 77.0 °F 19.9 °F 12% 29.94 in 10.0 mi West 5.8 mph - N/A   Clear
4:53 PM 75.9 °F 19.9 °F 12% 29.94 in 10.0 mi West 9.2 mph - N/A   Clear
5:53 PM 73.9 °F 23.0 °F 15% 29.94 in 10.0 mi West 6.9 mph - N/A   Clear
6:53 PM 72.0 °F 26.1 °F 18% 29.96 in 10.0 mi North 4.6 mph - N/A   Clear
7:53 PM 68.0 °F 28.0 °F 22% 29.98 in 10.0 mi West 5.8 mph - N/A   Clear
8:53 PM 66.9 °F 28.9 °F 24% 29.99 in 10.0 mi Calm Calm - N/A   Clear
9:53 PM 64.0 °F 30.0 °F 28% 29.99 in 10.0 mi West 3.5 mph - N/A   Clear
10:53 PM 62.1 °F 30.0 °F 30% 29.99 in 10.0 mi SW 3.5 mph - N/A   Clear
11:53 PM 59.0 °F 33.1 °F 38% 29.97 in 10.0 mi SE 5.8 mph - N/A   Clear